LUCH 5V (SDCM/PRN 141)

Last updated on Oct. 29, 2020, 5:53 a.m. UTC

1 39727U 14023A   20302.79563274 -.00000271  00000-0  00000+0 0  9998
2 39727   0.4367   8.0442 0001065 168.7292 241.8926  1.00277980541898
UTC
Height (km)
Latitude
Longitude
Inclination
Orbital Period
UTC large
Height (km)
Speed (km/s)
/
Latitude / Longitude
Inclination (degrees)
Orbital Period (minutes)
Azimuth
Elevation
Range (km)
Doppler Factor
iOS Compass Heading
iOS Angle

Next 30 passes for location: Hong Kong

Rise time Rise Azimuth (degrees) Set time Set Azimuth (degrees) Duration Max altitude (degrees)

No matching passes for this satellites